Galena, AK

10:42 AM AKST on February 19, 2018 (GMT -0900)
Pitka

Weather History for PAGA - June, 2013

Change the Weather History Date:

Wednesday, June 5, 2013

  Actual Average Record
Temperature  
Mean Temperature 52 °F -  
Max Temperature 63 °F 63 °F 85 °F (1957)
Min Temperature 43 °F 46 °F 28 °F (2006)
Degree Days  
Heating Degree Days 12    
Growing Degree Days 2 (Base 50)    
Moisture  
Dew Point 39 °F    
Average Humidity 61    
Maximum Humidity 93    
Minimum Humidity 37    
Precipitation  
Precipitation 0.00 in - - ()
Sea Level Pressure  
Sea Level Pressure 29.76 in    
Wind  
Wind Speed 5 mph (SW)    
Max Wind Speed 15 mph    
Max Gust Speed -    
Visibility 10 miles    
Events Rain    
Averages and records for this station are not official NWS values.
T = Trace of Precipitation, MM = Missing Value Source: NWS Daily Summary

Daily Weather History Graph

Daily Weather History Graph

Search for Another Location

Airport or City:

Trip Planner

Search our weather history database for the weather conditions in past years. The results will help you decide how hot, cold, wet, or windy it might be!

Date:

Astronomy

Jun. 05, 2013 Rise Set
Actual Time 3:59 AM AKDT 12:55 AM AKDT
Civil Twilight Sun does not rise Sun does not rise
Nautical Twilight Sun does not rise Sun does not rise
Astronomical Twilight Sun does not rise Sun does not rise
Moon 3:39 AM AKDT (6/5) 9:18 PM AKDT (6/5)
Length of Visible Light 24h 00m
Length of Day
20h 56m
Waning Crescent, 7% of the Moon is Illuminated
Jun 5
Waning Crescent
Jun 8
New
Jun 16
First Quarter
Jun 23
Full
Jun 29
Last Quarter

Hourly Weather History & Observations

Time (AKDT) Temp. Windchill Dew Point Humidity Pressure Visibility Wind Dir Wind Speed Gust Speed Precip Events Conditions
12:20 AM 53.6 °F - 42.8 °F 67% 29.63 in 10.0 mi Variable 6.9 mph - N/A Rain Light Rain
12:48 AM 48.2 °F - 44.6 °F 87% 29.64 in 8.0 mi NNE 4.6 mph - N/A Rain Rain
12:58 AM 46.9 °F - 45.0 °F 93% 29.67 in 10.0 mi Calm Calm - N/A Rain Light Rain
1:58 AM 48.0 °F - 46.0 °F 93% 29.68 in 10.0 mi Calm Calm - 0.00 in Rain Light Rain
2:58 AM 48.0 °F - 37.9 °F 68% 29.70 in 10.0 mi Calm Calm - 0.00 in   Overcast
3:58 AM 45.0 °F 43.5 °F 37.9 °F 76% 29.71 in 10.0 mi North 3.5 mph - N/A   Overcast
4:58 AM 44.1 °F 42.5 °F 37.0 °F 76% 29.72 in 10.0 mi NNE 3.5 mph - N/A   Overcast
5:58 AM 43.0 °F 41.3 °F 35.1 °F 74% 29.73 in 10.0 mi ENE 3.5 mph - N/A   Overcast
6:58 AM 43.0 °F - 35.1 °F 74% 29.75 in 10.0 mi Calm Calm - N/A   Overcast
7:58 AM 45.0 °F 42.6 °F 33.1 °F 63% 29.76 in 10.0 mi East 4.6 mph - 0.00 in   Overcast
8:58 AM 46.0 °F - 34.0 °F 63% 29.77 in 10.0 mi Calm Calm - N/A   Overcast
9:30 AM 46.4 °F - 33.8 °F 62% 29.76 in 10.0 mi Calm Calm - N/A   Mostly Cloudy
9:58 AM 48.9 °F - 32.0 °F 52% 29.78 in 10.0 mi SE 3.5 mph - N/A   Clear
10:58 AM 51.1 °F - 37.0 °F 59% 29.79 in 10.0 mi ESE 3.5 mph - N/A   Clear
11:58 AM 54.0 °F - 36.0 °F 51% 29.79 in 10.0 mi Variable 3.5 mph - N/A   Partly Cloudy
12:58 PM 55.9 °F - 37.0 °F 49% 29.80 in 10.0 mi South 3.5 mph - N/A   Scattered Clouds
1:58 PM 57.9 °F - 39.9 °F 51% 29.81 in 10.0 mi WSW 11.5 mph - N/A   Scattered Clouds
2:03 PM 57.2 °F - 39.2 °F 51% 29.78 in 10.0 mi WSW 9.2 mph - N/A   Scattered Clouds
2:58 PM 60.1 °F - 39.9 °F 47% 29.80 in 10.0 mi West 15.0 mph - N/A   Mostly Cloudy
3:58 PM 61.0 °F - 39.0 °F 44% 29.81 in 10.0 mi SW 11.5 mph - N/A   Scattered Clouds
4:58 PM 61.0 °F - 37.0 °F 41% 29.81 in 10.0 mi SW 6.9 mph - N/A   Mostly Cloudy
5:58 PM 62.1 °F - 35.1 °F 37% 29.81 in 10.0 mi SW 11.5 mph - N/A   Mostly Cloudy
6:58 PM 62.1 °F - 39.0 °F 43% 29.81 in 10.0 mi WSW 11.5 mph - N/A   Mostly Cloudy
7:58 PM 61.0 °F - 42.1 °F 50% 29.81 in 10.0 mi SW 10.4 mph - N/A   Partly Cloudy
8:58 PM 61.0 °F - 44.1 °F 54% 29.81 in 10.0 mi SW 10.4 mph - N/A   Clear
9:58 PM 60.1 °F - 43.0 °F 53% 29.81 in 10.0 mi WSW 8.1 mph - N/A   Clear
10:58 PM 57.0 °F - 45.0 °F 64% 29.83 in 10.0 mi North 4.6 mph - N/A   Overcast
11:58 PM 55.0 °F - 45.0 °F 69% 29.84 in 10.0 mi East 4.6 mph - N/A   Overcast